sat.trackr.live / text

‹ back to catalog

HIMAWARI-8

NORAD 40267 · 2014-060A

PAYLOAD ACTIVE UNKNOWN

§ Identity

Operator
Country
JPN
Launch date
2014-10-07
Launch site
TANSC
Launch vehicle
Mass (kg)
RCS (m²)
35.80

Purposes: comms, earth_obs

External: N2YO · Heavens-Above · Gunter

§ Orbital elements

Epoch: 2026-05-25T04:24:35.930016Z

Period
1,436.11 min
Inclination
0.0447°
Eccentricity
0.0001002
Mean motion
1.00270592 rev/d
Perigee alt
35,782.7 km
Apogee alt
35,791.2 km
Semi-major
42,165.1 km
B*
0.0000e+0
RAAN
95.0631°
Arg perigee
351.7560°
Mean anomaly
2.7547°
Rev number
4,253

§ Raw data

HIMAWARI-81 40267U 14060A   26145.18374919 -.00000278  00000+0  00000+0 0  99962 40267   0.0447  95.0631 0001002 351.7560   2.7547  1.00270592 42535

JSON: /api/v1/satellites/40267 · /tle

For live sub-satellite position, see the globe view (requires WebGL).

§ Visibility from observer

Set your observer location to see the next 7 days of passes ≥ 10°. The values pass through the URL so the page stays shareable.

No JS? Fill the form by hand. The geolocation button needs JavaScript.